Thief River Falls, MN

4:08 PM CDT on September 30, 2016 (GMT -0500)
Thief River Falls Regional

Weather History for KTVF - October, 2012

Change the Weather History Date:

Wednesday, October 31, 2012

  Actual Average Record
Temperature  
Mean Temperature 40 °F -  
Max Temperature 48 °F 40 °F 69 °F (1990)
Min Temperature 32 °F 27 °F 8 °F (1996)
Degree Days  
Heating Degree Days 25    
Moisture  
Dew Point 32 °F    
Average Humidity 75    
Maximum Humidity 93    
Minimum Humidity 53    
Precipitation  
Precipitation 0.00 in - - ()
Sea Level Pressure  
Sea Level Pressure 30.01 in    
Wind  
Wind Speed 9 mph (SE)    
Max Wind Speed 20 mph    
Max Gust Speed 24 mph    
Visibility 10 miles    
Events      
Averages and records for this station are not official NWS values.
T = Trace of Precipitation, MM = Missing Value Source: NWS Daily Summary

Daily Weather History Graph

Daily Weather History Graph

Search for Another Location

Airport or City:

Trip Planner

Search our weather history database for the weather conditions in past years. The results will help you decide how hot, cold, wet, or windy it might be!

Date:

Astronomy

Oct. 31, 2012 Rise Set
Actual Time 8:09 AM CDT 6:06 PM CDT
Civil Twilight 7:36 AM CDT 6:39 PM CDT
Nautical Twilight 6:59 AM CDT 7:15 PM CDT
Astronomical Twilight 6:23 AM CDT 7:52 PM CDT
Moon 7:09 PM CDT (10/31) 9:59 AM CDT (10/31)
Length of Visible Light 11h 02m
Length of Day
9h 57m
Full, 97% of the Moon is Illuminated
Oct 31
Full
Nov 6
Last Quarter
Nov 13
New
Nov 20
First Quarter
Nov 28
Full

Hourly Weather History & Observations

Time (CDT) Temp. Windchill Dew Point Humidity Pressure Visibility Wind Dir Wind Speed Gust Speed Precip Events Conditions
12:15 AM 37.4 °F 31.4 °F 32.0 °F 81% 30.09 in 10.0 mi East 8.1 mph - N/A   Overcast
12:35 AM 37.4 °F 30.8 °F 32.0 °F 81% 30.08 in 10.0 mi East 9.2 mph - N/A   Overcast
12:55 AM 37.4 °F 32.1 °F 32.0 °F 81% 30.08 in 10.0 mi ESE 6.9 mph - N/A   Overcast
1:15 AM 37.4 °F 31.4 °F 32.0 °F 81% 30.09 in 10.0 mi East 8.1 mph - N/A   Overcast
1:35 AM 37.4 °F 30.8 °F 33.8 °F 87% 30.08 in 10.0 mi East 9.2 mph - N/A   Overcast
1:55 AM 37.4 °F 31.4 °F 32.0 °F 81% 30.08 in 10.0 mi East 8.1 mph - N/A   Overcast
2:15 AM 35.6 °F 29.2 °F 32.0 °F 87% 30.07 in 10.0 mi East 8.1 mph - N/A   Overcast
2:35 AM 35.6 °F 29.2 °F 30.2 °F 81% 30.06 in 10.0 mi ESE 8.1 mph - N/A   Overcast
2:55 AM 35.6 °F 29.2 °F 30.2 °F 81% 30.07 in 10.0 mi ESE 8.1 mph - N/A   Overcast
3:15 AM 35.6 °F 29.2 °F 28.4 °F 75% 30.07 in 10.0 mi ESE 8.1 mph - N/A   Overcast
3:35 AM 33.8 °F 27.7 °F 28.4 °F 81% 30.06 in 10.0 mi ESE 6.9 mph - N/A   Overcast
3:55 AM 33.8 °F 27.7 °F 28.4 °F 81% 30.05 in 10.0 mi ESE 6.9 mph - N/A   Overcast
4:15 AM 33.8 °F 27.7 °F 28.4 °F 81% 30.05 in 10.0 mi ESE 6.9 mph - N/A   Overcast
4:35 AM 32.0 °F 25.6 °F 26.6 °F 80% 30.04 in 10.0 mi ESE 6.9 mph - N/A   Scattered Clouds
4:55 AM 32.0 °F 26.4 °F 26.6 °F 80% 30.04 in 10.0 mi ESE 5.8 mph - N/A   Mostly Cloudy
5:15 AM 33.8 °F 27.7 °F 28.4 °F 81% 30.04 in 10.0 mi ESE 6.9 mph - N/A   Overcast
5:35 AM 33.8 °F 27.7 °F 26.6 °F 75% 30.04 in 10.0 mi ESE 6.9 mph - N/A   Overcast
5:55 AM 33.8 °F 28.6 °F 26.6 °F 75% 30.04 in 10.0 mi ESE 5.8 mph - N/A   Overcast
6:15 AM 33.8 °F 27.7 °F 26.6 °F 75% 30.04 in 10.0 mi ESE 6.9 mph - N/A   Overcast
6:35 AM 33.8 °F 27.7 °F 26.6 °F 75% 30.03 in 10.0 mi SE 6.9 mph - N/A   Overcast
6:55 AM 33.8 °F 28.6 °F 28.4 °F 81% 30.03 in 10.0 mi ESE 5.8 mph - N/A   Overcast
7:15 AM 33.8 °F 29.6 °F 28.4 °F 81% 30.03 in 10.0 mi ESE 4.6 mph - N/A   Overcast
7:35 AM 33.8 °F 29.6 °F 28.4 °F 81% 30.03 in 10.0 mi ESE 4.6 mph - N/A   Overcast
7:55 AM 33.8 °F 28.6 °F 28.4 °F 81% 30.02 in 10.0 mi ESE 5.8 mph - N/A   Overcast
8:15 AM 33.8 °F 27.7 °F 28.4 °F 81% 30.02 in 10.0 mi ESE 6.9 mph - N/A   Overcast
8:35 AM 33.8 °F 27.7 °F 28.4 °F 81% 30.01 in 10.0 mi SE 6.9 mph - N/A   Overcast
8:55 AM 33.8 °F 26.4 °F 28.4 °F 81% 30.01 in 10.0 mi SE 9.2 mph - N/A   Overcast
9:15 AM 33.8 °F 27.7 °F 28.4 °F 81% 30.01 in 10.0 mi SE 6.9 mph - N/A   Overcast
9:35 AM 35.6 °F 29.2 °F 30.2 °F 81% 30.01 in 10.0 mi SSE 8.1 mph - N/A   Overcast
9:55 AM 35.6 °F 30.7 °F 30.2 °F 81% 30.01 in 10.0 mi SE 5.8 mph - N/A   Overcast
10:15 AM 37.4 °F 32.1 °F 30.2 °F 75% 30.00 in 10.0 mi SE 6.9 mph - N/A   Overcast
10:35 AM 37.4 °F 32.1 °F 30.2 °F 75% 30.00 in 10.0 mi South 6.9 mph - N/A   Overcast
10:55 AM 39.2 °F 34.2 °F 30.2 °F 70% 30.01 in 10.0 mi South 6.9 mph - N/A   Mostly Cloudy
11:15 AM 41.0 °F 35.8 °F 33.8 °F 76% 29.99 in 10.0 mi South 8.1 mph - N/A   Partly Cloudy
11:35 AM 44.6 °F 39.2 °F 32.0 °F 61% 29.99 in 10.0 mi SSW 10.4 mph - N/A   Scattered Clouds
11:55 AM 44.6 °F 40.2 °F 32.0 °F 61% 29.99 in 10.0 mi South 8.1 mph - N/A   Overcast
12:15 PM 44.6 °F 40.7 °F 30.2 °F 57% 29.98 in 10.0 mi South 6.9 mph - N/A   Mostly Cloudy
12:35 PM 46.4 °F 41.9 °F 30.2 °F 53% 29.98 in 10.0 mi SSW 9.2 mph - N/A   Overcast
12:55 PM 46.4 °F 41.9 °F 30.2 °F 53% 29.97 in 10.0 mi SSW 9.2 mph - N/A   Mostly Cloudy
1:15 PM 46.4 °F 42.4 °F 32.0 °F 57% 29.97 in 10.0 mi South 8.1 mph - N/A   Mostly Cloudy
1:35 PM 46.4 °F 41.9 °F 30.2 °F 53% 29.96 in 10.0 mi SSW 9.2 mph - N/A   Mostly Cloudy
1:55 PM 46.4 °F 41.9 °F 30.2 °F 53% 29.94 in 10.0 mi South 9.2 mph - N/A   Overcast
2:15 PM 46.4 °F 42.9 °F 32.0 °F 57% 29.94 in 10.0 mi South 6.9 mph - N/A   Overcast
2:35 PM 48.2 °F - 33.8 °F 58% 29.93 in 10.0 mi South 6.9 mph - N/A   Overcast
2:55 PM 48.2 °F - 33.8 °F 58% 29.93 in 10.0 mi SSW 8.1 mph - N/A   Overcast
3:15 PM 48.2 °F - 33.8 °F 58% 29.93 in 10.0 mi SSW 10.4 mph - N/A   Overcast
3:35 PM 48.2 °F - 33.8 °F 58% 29.94 in 10.0 mi WSW 9.2 mph - N/A   Overcast
3:55 PM 48.2 °F - 35.6 °F 62% 29.95 in 10.0 mi West 9.2 mph - N/A   Overcast
4:15 PM 48.2 °F - 35.6 °F 62% 29.94 in 10.0 mi West 5.8 mph - N/A   Overcast
4:35 PM 46.4 °F 42.9 °F 35.6 °F 66% 29.95 in 10.0 mi West 6.9 mph - N/A   Overcast
4:55 PM 46.4 °F 41.5 °F 35.6 °F 66% 29.95 in 10.0 mi West 10.4 mph - N/A   Overcast
5:15 PM 46.4 °F 42.9 °F 35.6 °F 66% 29.95 in 10.0 mi West 6.9 mph - N/A   Overcast
5:35 PM 44.6 °F 40.2 °F 35.6 °F 71% 29.95 in 10.0 mi WNW 8.1 mph - N/A   Overcast
5:55 PM 44.6 °F 40.2 °F 35.6 °F 71% 29.95 in 10.0 mi WNW 8.1 mph - N/A   Overcast
6:15 PM 44.6 °F 38.8 °F 35.6 °F 71% 29.96 in 10.0 mi NW 11.5 mph - N/A   Overcast
6:35 PM 42.8 °F 36.2 °F 35.6 °F 76% 29.97 in 10.0 mi NW 12.7 mph - N/A   Overcast
6:55 PM 42.8 °F 35.8 °F 35.6 °F 76% 29.98 in 10.0 mi NNW 13.8 mph - N/A   Overcast
7:15 PM 42.8 °F 36.2 °F 35.6 °F 76% 29.98 in 10.0 mi NNW 12.7 mph - N/A   Overcast
7:35 PM 42.8 °F 35.4 °F 35.6 °F 76% 29.99 in 10.0 mi NNW 15.0 mph 18.4 mph N/A   Overcast
7:55 PM 42.8 °F 34.8 °F 35.6 °F 76% 29.99 in 10.0 mi NNW 17.3 mph - N/A   Overcast
8:15 PM 41.0 °F 32.5 °F 35.6 °F 81% 30.00 in 10.0 mi NNW 17.3 mph 21.9 mph N/A   Overcast
8:35 PM 39.2 °F 31.2 °F 35.6 °F 87% 30.01 in 9.0 mi NNW 13.8 mph - N/A   Overcast
8:55 PM 39.2 °F 30.2 °F 37.4 °F 93% 30.01 in 10.0 mi North 17.3 mph 21.9 mph N/A   Overcast
9:15 PM 39.2 °F 30.2 °F 37.4 °F 93% 30.02 in 10.0 mi NNW 17.3 mph 21.9 mph N/A   Overcast
9:35 PM 39.2 °F 30.2 °F 35.6 °F 87% 30.02 in 10.0 mi North 17.3 mph - N/A   Overcast
9:55 PM 39.2 °F 30.8 °F 35.6 °F 87% 30.02 in 10.0 mi North 15.0 mph - N/A   Overcast
10:15 PM 39.2 °F 32.5 °F 35.6 °F 87% 30.02 in 10.0 mi North 10.4 mph - N/A   Overcast
10:35 PM 39.2 °F 32.5 °F 37.4 °F 93% 30.03 in 8.0 mi NNW 10.4 mph - N/A   Overcast
10:55 PM 39.2 °F 30.8 °F 37.4 °F 93% 30.03 in 6.0 mi NW 15.0 mph - N/A   Overcast
11:15 PM 39.2 °F 29.8 °F 37.4 °F 93% 30.03 in 9.0 mi NNW 18.4 mph 21.9 mph N/A   Overcast
11:35 PM 39.2 °F 30.8 °F 35.6 °F 87% 30.04 in 10.0 mi NNW 15.0 mph 20.7 mph N/A   Overcast
11:55 PM 39.2 °F 29.6 °F 33.8 °F 81% 30.04 in 10.0 mi NNW 19.6 mph 24.2 mph N/A   Mostly Cloudy